Location: Elk Forest
(39.5314°N, 75.8738°W)
Time: 01:32:03
(UTC-04:00)

Daily predictions for brighter satellites

Satellite Brightness Start Highest point End
(mag) Time Altitude Azimuth Time Altitude Azimuth Time Altitude Azimuth
Cosmos 2237 Rocket 3.8 00:12:24 31° NNW 00:12:24 31° NNW 00:16:11 10° N
COSMOS 2455 4.1 00:06:23 10° NNW 00:10:05 38° N 00:10:05 38° N
Cosmos 2369 Rocket 4.4 00:10:31 10° N 00:13:27 17° NE 00:13:27 17° NE
CENTAUR R/B 3.4 00:24:07 10° NW 00:30:30 61° NW 00:30:30 61° NW
ATLAS CENTAUR R/B 4.1 00:25:12 10° NW 00:33:12 39° N 00:33:12 39° N
USA 215 4.4 00:46:20 36° NE 00:47:04 37° NNE 00:52:56 10° NW
SL-16 R/B 4.2 01:21:36 22° NNW 01:21:36 22° NNW 01:24:41 10° N
Mayak 2.0 01:21:34 10° N 01:21:40 11° N 01:21:40 11° N
Cosmos 1943 Rocket 4.0 01:30:16 10° N 01:33:00 27° N 01:33:00 27° N
Cosmos 2369 Rocket 4.2 01:53:14 10° NNW 01:55:12 22° NNW 01:55:12 22° NNW
BREEZE-M DEB (TANK) 4.3 02:11:46 52° NNE 02:11:46 52° NNE 02:22:24 10° ENE
SL-16 R/B 4.0 02:19:37 28° E 02:20:57 30° ENE 02:26:14 10° N
ADEOS Rocket 3.6 02:35:41 10° NNE 02:39:29 46° NNE 02:39:29 46° NNE
NPP 4.5 02:46:23 10° NNE 02:50:12 47° NNE 02:50:12 47° NNE
Resurs 1-4 Rocket 2.9 03:00:15 10° NNE 03:04:34 48° ENE 03:04:34 48° ENE
ARIANE 5 R/B 3.5 03:02:09 10° NNE 03:06:37 43° E 03:06:37 43° E
COSMOS 2406 3.5 03:14:18 65° NNE 03:14:18 65° NNE 03:19:08 10° NNE
MOS 1 Rocket 4.4 03:14:29 10° NNE 03:17:37 40° NE 03:17:37 40° NE
Sich 1 4.3 03:19:18 10° N 03:22:39 39° NE 03:22:39 39° NE
CZ-2D R/B 2.2 03:20:54 10° NNE 03:25:45 72° NE 03:25:45 72° NE
Cosmos 2285 Rocket 3.8 03:26:51 86° SSW 03:27:02 90° WNW 03:33:28 10° NNE
Tiangong 2 4.4 03:35:53 10° E 03:35:53 10° E 03:35:57 10° E
IRS-1D 3.6 03:32:25 10° N 03:37:11 74° NNW 03:37:11 74° NNW
BREEZE M DEB (TANK) 3.0 03:40:16 68° NNE 03:40:22 69° NE 03:49:22 10° ESE
MOZ.5/SAFIR/RUBIN 5/SL-8 4.0 03:44:20 62° E 03:44:40 64° ENE 03:49:19 10° N
CZ-3A R/B 3.8 03:37:43 10° NW 03:50:25 10° SSE 03:43:26 42° W
Spot 4 Rocket 4.1 03:41:50 10° N 03:46:34 63° NW 03:46:34 63° NW
ADEOS II 4.0 03:46:13 10° NE 03:50:24 24° E 03:54:27 10° SE
Cosmos 2123 Rocket 4.4 03:46:11 10° NNW 03:51:28 43° WNW 03:51:28 43° WNW
Lacrosse 5 3.2 03:50:13 10° NNW 03:54:58 38° NE 03:59:41 10° ESE
Cosmos 1459 Rocket 4.2 03:52:30 35° SSE 03:55:04 63° E 04:01:03 10° NNE
Cosmos 1633 Rocket 3.2 03:52:05 10° N 03:55:55 68° N 03:55:55 68° N
Cosmos 2082 Rocket 3.5 03:53:57 22° SSE 03:56:33 33° ESE 04:01:32 10° NE
ADEOS 3.4 03:53:56 10° N 03:59:08 69° WNW 03:59:25 68° W
Cosmos 1726 3.6 04:01:54 29° NNW 04:01:54 29° NNW 04:03:58 10° N
Cosmos 2228 Rocket 3.4 04:02:17 56° SE 04:02:53 64° E 04:07:17 10° NNE
SL-16 R/B 2.9 04:04:42 42° W 04:04:42 42° W 04:10:13 10° NNW
USA 229 DEB 4.2 04:07:57 10° NW 04:14:06 38° WSW 04:14:06 38° WSW
USA 229 4.2 04:08:03 10° NW 04:14:19 39° WSW 04:14:19 39° WSW
Cosmos 1315 Rocket 4.3 04:11:42 10° NNW 04:13:44 26° NW 04:13:44 26° NW
BREEZE M DEB (TANK) 4.4 04:17:25 17° ESE 04:17:25 17° ESE 04:18:12 10° ESE
Cosmos 1328 Rocket 3.3 04:17:08 72° WSW 04:17:21 74° W 04:21:43 10° N
NOSS 3-1 (A) 4.1 04:12:09 10° NNW 04:19:55 88° ENE 04:28:26 10° SSE
Cosmos 1656 4.5 04:15:47 10° NNW 04:21:22 53° ENE 04:26:55 10° SE
Meteor 2-3 Rocket 4.3 04:16:42 10° N 04:22:16 57° ENE 04:27:51 10° SSE
Meteor 2-10 4.2 04:22:32 43° SW 04:24:17 65° WNW 04:29:54 10° N
Cosmos 1892 3.4 04:24:13 10° N 04:27:59 54° E 04:31:11 14° SSE
Cosmos 1538 Rocket 4.4 04:26:52 41° WSW 04:28:00 47° WNW 04:33:11 10° N
Cosmos 2369 3.8 04:22:45 10° NNW 04:28:26 79° ENE 04:34:05 10° SSE
In-Cosmos 22 Rocket 4.0 04:26:02 10° NNW 04:31:22 67° W 04:34:27 25° S
Cosmos 2061 Rocket 4.0 04:28:51 28° SSW 04:32:30 75° W 04:38:56 10° N
UNKNOWN OBJECT B 3.6 04:32:03 10° N 04:35:47 36° WNW 04:35:51 36° WNW
Cosmos 923 Rocket 3.9 04:34:15 33° SSW 04:36:42 88° WNW 04:41:59 10° NNE
Cosmos 2016 Rocket 3.9 04:34:35 21° S 04:38:49 83° W 04:44:58 10° N
Cosmos 1933 Rocket 3.5 04:36:33 10° NNW 04:41:00 70° W 04:43:42 23° S
BREEZE-M DEB (TANK) 3.8 04:38:34 15° NW 04:41:33 57° NNE 04:51:05 10° ESE
Cosmos 1151 Rocket 2.9 04:41:22 38° SSW 04:42:55 68° W 04:47:11 10° N
Hubble Space Telescope 2.6 04:44:31 17° S 04:44:31 17° S 04:46:42 10° SE
Resurs 1-4 Rocket 3.6 04:41:10 10° NNW 04:44:49 19° WNW 04:45:39 19° WNW
ARIANE 5 R/B 3.9 04:41:59 10° NNW 04:45:57 22° WNW 04:46:56 21° W
NOSS 3-1 (C) 4.2 04:40:20 10° NW 04:47:47 51° WSW 04:55:53 10° S
Meteor 1-27 4.1 04:44:06 20° SSW 04:48:04 78° W 04:53:41 10° N
Cosmos 1833 Rocket 2.6 04:45:26 24° SSW 04:48:59 89° WNW 04:54:41 10° NNE
CZ-2D R/B 4.4 04:48:15 10° NNW 04:51:37 27° WNW 04:52:00 26° W
SL-08 R/B 4.5 04:47:02 14° S 04:52:42 78° W 04:59:06 10° N
Cosmos 1725 Rocket 3.9 04:47:32 10° S 04:53:43 90° WNW 04:59:55 10° N
Cosmos 1680 Rocket 3.5 04:51:05 22° SSW 04:54:33 80° WNW 04:59:54 10° NNE
Cosmos 1802 Rocket 4.3 04:57:19 21° SW 05:01:09 46° WNW 05:07:11 10° N
Cosmos 2112 Rocket 4.0 04:58:05 18° SSW 05:02:07 80° WNW 05:07:30 10° NNE
PSLV R/B 3.4 05:02:49 36° WSW 05:03:36 45° SSW 05:06:43 10° SE
CZ-4B R/B 3.1 04:59:49 10° NNE 05:04:20 88° WNW 05:08:49 10° SSW
Okean O Rocket 1.7 05:00:03 10° NNE 05:04:29 76° ESE 05:08:51 10° S
CZ-2D R/B 4.0 05:03:12 10° NNW 05:05:35 13° WNW 05:07:04 12° WNW
Cosmos 1980 Rocket 3.2 05:01:45 10° NNW 05:07:13 51° ENE 05:12:40 10° SE
Tiangong 2 1.4 05:08:15 26° W 05:09:51 63° NNW 05:13:03 10° ENE
Shenzhou-11 Module 2.7 05:14:00 20° WNW 05:15:55 48° N 05:18:55 10° ENE
Cosmos 2278 4.0 05:11:39 10° NW 05:16:56 41° WSW 05:22:10 10° S
Cosmos 1455 2.7 05:16:37 19° SW 05:18:55 39° W 05:22:28 10° N
Cosmos 2056 Rocket 4.3 05:16:00 10° N 05:21:19 57° ENE 05:26:38 10° SSE
Cosmos 1697 Rocket 2.6 05:16:03 10° NNW 05:21:42 72° WSW 05:27:20 10° SSE
Tsikada Rocket 4.0 05:16:12 10° NNW 05:22:27 64° W 05:28:44 10° S
COSMOS 2487 4.0 05:28:16 15° WSW 05:29:57 21° WNW 05:32:43 10° NNW
ADEOS II 2.6 05:25:21 10° N 05:30:14 40° WNW 05:35:06 10° SW
CZ-4B DEB 4.2 05:30:13 10° N 05:35:41 66° WNW 05:41:07 10° SSW
Lacrosse 5 2.4 05:33:16 10° WNW 05:37:54 37° SW 05:42:31 10° S
CRYOSAT 2 4.4 05:35:32 10° N 05:40:25 88° W 05:45:16 10° S
Cosmos 2082 Rocket 3.0 05:35:50 11° WSW 05:40:34 33° WNW 05:45:39 10° N
Meteor PRIRODA 3.6 05:38:43 10° N 05:42:23 73° WNW 05:46:00 10° SSW
Cosmos 2084 4.0 05:40:10 11° WSW 05:43:45 38° NW 05:47:24 10° NNE
Cosmos 1862 3.9 05:41:04 10° N 05:45:07 64° E 05:49:08 10° SSE
Cosmos 1869 Rocket 3.9 05:42:40 10° NNW 05:46:56 45° W 05:51:09 10° SSW
COSMO-SKYMED 1 4.4 05:45:07 10° SE 05:49:07 37° ENE 05:53:07 10° N
OAO 2 Rocket 3.8 05:46:25 10° WSW 05:51:09 48° S 05:55:57 10° E
Lacrosse 4 Rocket 2.6 05:48:12 10° S 05:52:28 48° ESE 05:56:49 10° NE
Meteor 2-10 Rocket 4.2 05:48:08 10° S 05:53:51 69° E 05:59:38 10° NNE
Cosmos 1346 Rocket 4.3 05:52:07 10° SSE 05:55:50 41° E 05:59:37 10° NNE
